GW3424 Weather Reports


Display with metric or nautical units.
time (UTC)temp
F
wind
direction
speed
MPH
gust
MPH
rain 1hr
in
rain 24hr
in
rain mn
in
humidity
%
barometer
mb
20260507070059 77 360 4.0 12.0 0.00 0.00 0.00 22 978.3
20260507065544 77 360 6.0 12.0 0.00 0.00 0.00 20 978.3
20260507065045 77 360 8.0 11.0 0.00 0.00 0.00 20 978.3
20260507064544 78 360 6.0 12.0 0.00 0.00 0.00 20 978.3
20260507064044 78 360 6.0 12.0 0.00 0.00 0.00 20 978.3
20260507063545 78 360 6.0 12.0 0.00 0.00 0.00 20 978.4
20260507063055 78 360 6.0 11.0 0.00 0.00 0.00 20 978.4
20260507062544 78 360 5.0 10.0 0.00 0.00 0.00 20 978.4
20260507062044 78 360 6.0 11.0 0.00 0.00 0.00 20 978.3
20260507061547 78 360 6.0 13.0 0.00 0.00 0.00 20 978.3
20260507061043 78 360 7.0 13.0 0.00 0.00 0.00 20 978.3
20260507060547 78 360 6.0 11.0 0.00 0.00 0.00 20 978.3
20260507060046 78 360 6.0 11.0 0.00 0.00 0.00 20 978.4
20260507055545 78 360 6.0 12.0 0.00 0.00 0.00 20 978.4
20260507055044 79 360 6.0 11.0 0.00 0.00 0.00 20 978.3
20260507054545 79 360 6.0 12.0 0.00 0.00 0.00 20 978.3
20260507054045 79 360 7.0 12.0 0.00 0.00 0.00 20 978.3
20260507053544 79 360 6.0 10.0 0.00 0.00 0.00 20 978.3
20260507053044 78 360 7.0 11.0 0.00 0.00 0.00 20 978.3
20260507052548 78 360 5.0 11.0 0.00 0.00 0.00 20 978.3
20260507052044 79 360 7.0 10.0 0.00 0.00 0.00 20 978.3
20260507051544 79 360 5.0 9.0 0.00 0.00 0.00 20 978.2
20260507051043 79 360 4.0 11.0 0.00 0.00 0.00 20 978.2
20260507050544 79 360 4.0 11.0 0.00 0.00 0.00 20 978.1
20260507050044 79 360 3.0 9.0 0.00 0.00 0.00 20 978.1
20260507045544 79 360 4.0 9.0 0.00 0.00 0.00 20 978.1
20260507045044 79 360 6.0 9.0 0.00 0.00 0.00 20 978.0
20260507044545 79 360 6.0 9.0 0.00 0.00 0.00 20 978.1
20260507044047 79 360 4.0 9.0 0.00 0.00 0.00 20 978.1
20260507043544 79 360 4.0 8.0 0.00 0.00 0.00 20 978.1
20260507043044 79 360 3.0 8.0 0.00 0.00 0.00 20 978.0
20260507042544 79 360 3.0 9.0 0.00 0.00 0.00 20 978.0
20260507042044 80 360 5.0 10.0 0.00 0.00 0.00 20 977.9
20260507041544 80 360 6.0 10.0 0.00 0.00 0.00 20 977.9
20260507041044 80 360 4.0 11.0 0.00 0.00 0.00 20 977.9
20260507040546 80 360 6.0 12.0 0.00 0.00 0.00 20 977.9
20260507040044 80 360 7.0 12.0 0.00 0.00 0.00 20 977.9
20260507035544 80 360 7.0 12.0 0.00 0.00 0.00 20 977.7
20260507035045 80 360 6.0 10.0 0.00 0.00 0.00 19 977.7
20260507034544 80 360 4.0 10.0 0.00 0.00 0.00 19 977.6
20260507034044 80 360 4.0 10.0 0.00 0.00 0.00 19 977.5
20260507033544 80 360 5.0 8.0 0.00 0.00 0.00 19 977.4
20260507033046 81 360 4.0 8.0 0.00 0.00 0.00 19 977.4
20260506162543 73 360 4.0 8.0 0.00 0.00 0.00 30 980.7
20260506162043 73 360 4.0 6.0 0.00 0.00 0.00 30 980.7
20260506161543 73 360 3.0 9.0 0.00 0.00 0.00 31 980.6
20260506161043 72 360 5.0 10.0 0.00 0.00 0.00 31 980.7
20260506160543 72 360 4.0 10.0 0.00 0.00 0.00 31 980.6
20260506160049 72 360 2.0 10.0 0.00 0.00 0.00 31 980.6
20260506155543 72 360 5.0 9.0 0.00 0.00 0.00 31 980.6
20260506155043 71 360 1.0 10.0 0.00 0.00 0.00 32 980.6
20260506154550 71 360 5.0 10.0 0.00 0.00 0.00 32 980.6
20260506154043 70 360 4.0 10.0 0.00 0.00 0.00 33 980.7
20260506153542 70 360 5.0 10.0 0.00 0.00 0.00 33 980.8
20260506153043 69 360 3.0 10.0 0.00 0.00 0.00 34 980.6
20260506152543 69 360 6.0 9.0 0.00 0.00 0.00 34 980.6
20260506152043 69 360 5.0 9.0 0.00 0.00 0.00 34 980.7
20260506151543 69 360 4.0 9.0 0.00 0.00 0.00 34 980.7
20260506151043 68 360 3.0 8.0 0.00 0.00 0.00 35 980.8
20260506150543 67 360 2.0 5.0 0.00 0.00 0.00 41 980.6
20260506150043 67 360 3.0 5.0 0.00 0.00 0.00 42 980.7
20260506145546 66 360 2.0 4.0 0.00 0.00 0.00 44 980.6
20260506145043 66 360 2.0 5.0 0.00 0.00 0.00 45 980.6
20260506144544 65 360 2.0 5.0 0.00 0.00 0.00 45 980.6
20260506144043 64 360 3.0 5.0 0.00 0.00 0.00 45 980.5
20260506143543 64 360 2.0 3.0 0.00 0.00 0.00 45 980.4
20260506143043 64 360 0.0 4.0 0.00 0.00 0.00 46 980.5
20260506142543 63 360 2.0 4.0 0.00 0.00 0.00 46 980.5
20260506142042 63 360 2.0 4.0 0.00 0.00 0.00 46 980.4
20260506141603 63 360 1.0 4.0 0.00 0.00 0.00 47 980.4
20260506141046 63 360 2.0 3.0 0.00 0.00 0.00 47 980.4
20260506140546 63 360 2.0 3.0 0.00 0.00 0.00 44 980.3
20260506140043 63 360 1.0 3.0 0.00 0.00 0.00 44 980.2
20260506135542 63 360 1.0 3.0 0.00 0.00 0.00 43 980.1
20260506135043 62 360 0.0 3.0 0.00 0.00 0.00 41 980.1
20260506134543 62 360 1.0 3.0 0.00 0.00 0.00 42 980.0
20260506134043 62 360 2.0 5.0 0.00 0.00 0.00 42 980.0
20260506133543 61 360 2.0 5.0 0.00 0.00 0.00 43 980.0
20260506133043 60 360 2.0 4.0 0.00 0.00 0.00 43 979.9
20260506132543 60 360 3.0 8.0 0.00 0.00 0.00 44 979.9
20260506132043 59 360 3.0 9.0 0.00 0.00 0.00 45 979.8
20260506131544 58 360 7.0 9.0 0.00 0.00 0.00 45 979.7
20260506131043 58 360 6.0 9.0 0.00 0.00 0.00 46 979.7
20260506130543 58 360 5.0 9.0 0.00 0.00 0.00 46 979.6
20260506130044 58 360 7.0 9.0 0.00 0.00 0.00 45 979.5
20260506125542 58 360 5.0 11.0 0.00 0.00 0.00 45 979.5
20260506125043 58 360 7.0 11.0 0.00 0.00 0.00 46 979.3
20260506124543 57 360 8.0 12.0 0.00 0.00 0.00 46 979.3
20260506124043 57 360 9.0 12.0 0.00 0.00 0.00 47 979.2
20260506123543 57 360 10.0 11.0 0.00 0.00 0.00 47 979.3
20260506123046 57 360 9.0 11.0 0.00 0.00 0.00 47 979.3
20260506122543 57 360 7.0 10.0 0.00 0.00 0.00 47 979.1
20260506122045 57 360 5.0 8.0 0.00 0.00 0.00 46 979.1
20260506121553 58 360 5.0 8.0 0.00 0.00 0.00 46 979.0
20260506121043 59 360 5.0 8.0 0.00 0.00 0.00 44 979.0
20260506120543 61 360 5.0 8.0 0.00 0.00 0.00 43 978.9
20260506120107 63 360 4.0 6.0 0.00 0.00 0.00 42 978.9
20260506115543 64 360 3.0 6.0 0.00 0.00 0.00 40 978.8
20260506115042 66 360 2.0 6.0 0.00 0.00 0.00 37 978.8
20260506114545 66 360 2.0 11.0 0.00 0.00 0.00 36 978.7
20260506114043 66 360 6.0 11.0 0.00 0.00 0.00 36 978.7
20260506113543 66 360 6.0 14.0 0.00 0.00 0.00 36 978.9
20260506113043 66 360 5.0 14.0 0.00 0.00 0.00 36 978.7
20260506112543 66 360 8.0 11.0 0.00 0.00 0.00 36 978.7
20260506112043 66 360 7.0 11.0 0.00 0.00 0.00 36 978.7
20260506111543 66 360 5.0 13.0 0.00 0.00 0.00 36 978.6
20260506111043 66 360 3.0 13.0 0.00 0.00 0.00 36 978.6
20260506110543 67 360 7.0 11.0 0.00 0.00 0.00 36 978.6
20260506110043 67 360 8.0 12.0 0.00 0.00 0.00 36 978.5
20260506105543 67 360 6.0 12.0 0.00 0.00 0.00 35 978.7
20260506105042 67 360 8.0 12.0 0.00 0.00 0.00 35 978.6
20260506104543 67 360 8.0 15.0 0.00 0.00 0.00 35 978.6
20260506104043 67 360 8.0 15.0 0.00 0.00 0.00 35 978.6
20260506103543 67 360 6.0 14.0 0.00 0.00 0.00 36 978.5
20260506103043 67 360 9.0 14.0 0.00 0.00 0.00 36 978.5
20260506102543 67 360 9.0 14.0 0.00 0.00 0.00 36 978.4
20260506102043 67 360 6.0 12.0 0.00 0.00 0.00 36 978.4
20260506101547 67 360 5.0 17.0 0.00 0.00 0.00 36 978.2
20260506101042 67 360 9.0 17.0 0.00 0.00 0.00 36 978.1
20260506100543 67 360 9.0 15.0 0.00 0.00 0.00 36 978.2
20260506100043 67 360 7.0 12.0 0.00 0.00 0.00 36 978.1
20260506095543 67 360 9.0 12.0 0.00 0.00 0.00 36 978.1
20260506095043 67 360 8.0 12.0 0.00 0.00 0.00 36 978.0
20260506094546 67 360 6.0 14.0 0.00 0.00 0.00 36 978.1
20260506094042 67 360 7.0 15.0 0.00 0.00 0.00 36 978.1
20260506093543 67 360 9.0 15.0 0.00 0.00 0.00 36 978.0
20260506093048 67 360 10.0 15.0 0.00 0.00 0.00 36 978.0
20260506092543 67 360 6.0 13.0 0.00 0.00 0.00 36 978.0
20260506092043 67 360 6.0 12.0 0.00 0.00 0.00 36 978.0
20260506091543 67 360 6.0 10.0 0.00 0.00 0.00 36 978.0
20260506091042 68 360 5.0 13.0 0.00 0.00 0.00 36 977.9
20260506090542 68 360 6.0 11.0 0.00 0.00 0.00 36 978.0
20260506090043 68 360 6.0 13.0 0.00 0.00 0.00 36 977.9
20260506085543 68 360 8.0 13.0 0.00 0.00 0.00 36 977.8
20260506085043 68 360 7.0 13.0 0.00 0.00 0.00 36 977.8
20260506084543 68 360 7.0 13.0 0.00 0.00 0.00 36 977.8
20260506084043 68 360 8.0 13.0 0.00 0.00 0.00 36 977.8
20260506083543 68 360 7.0 14.0 0.00 0.00 0.00 36 977.9
20260506083045 68 360 9.0 14.0 0.00 0.00 0.00 36 977.8
20260506082543 68 360 7.0 14.0 0.00 0.00 0.00 36 977.8
20260506082043 68 360 9.0 14.0 0.00 0.00 0.00 36 977.7
20260506081549 68 360 9.0 14.0 0.00 0.00 0.00 36 977.8
20260506081043 68 360 9.0 12.0 0.00 0.00 0.00 35 977.8
20260506080547 68 360 7.0 12.0 0.00 0.00 0.00 35 977.8
20260506073046 69 360 7.0 16.0 0.00 0.00 0.00 35 977.9
20260506072543 69 360 11.0 16.0 0.00 0.00 0.00 35 977.9
20260506072043 69 360 8.0 15.0 0.00 0.00 0.00 35 977.9
20260506071550 69 360 9.0 14.0 0.00 0.00 0.00 35 977.9
20260506071042 69 360 6.0 13.0 0.00 0.00 0.00 34 977.7
20260506070543 69 360 9.0 13.0 0.00 0.00 0.00 34 977.7